NOAA 16 DEB, 41495

Orbit data source: Space-Track

NOAA 16 DEB, 41495 is space debris in SSO originally from a launch on Thu, 21 Sep 2000 UTC launched from the Air Force Western Test Range (AFWTR). Debris objects in space refer to the collection of defunct objects orbiting the Earth. Examples of debris include non-operational satellites, rocket bodies, and fragments generated from explosions, collisions, or faulty payload assembly.

Loading next visibility...
Identifier
41495, 2000-055LT
Orbit
SSO
Country
Flag of USUS
Related business
Manufacturer
Unknown
Mission
Spacecraft
Bus & Motor
Unknown
Mass
Unknown
Launch date (UTC)
2000-09-21 (25 years ago)
Launch vehicle
Unknown
Launch site
Air Force Western Test Range (AFWTR)
Object type
Payload
Rocket body
Debris
Shape & HBR
Unknown shape, 0.1 m
Radar Cross Section
Small (<0.1 m²)

Expand to show TLE details & history
Last TLE update: 1 day ago

TLE from 1 day ago
0 NOAA 16 DEB
1 41495U 00055LT  25349.49399194  .00002377  00000-0  12206-2 0  9996
2 41495  98.6769 356.8581 0036835  50.4640 309.9780 14.15907577501738
Epoch: 2025-12-15T11:51Z
TLE epoch observation values (Epoch: 2025-12-15T11:51:20.903Z)
Latitude
-0.00003°
Longitude
94.62925°
Altitude
825.11 km
Speed
7.449 km/s
True Right ascension
23h 47m 25s
True Declination
0° 00' 00"
Sunlit
Object was in daylight at epoch
Visualization orbit readout
Latitude
Unknown
Longitude
Unknown
Altitude
Unknown
Speed
Unknown
Apparent Right ascension
Unknown
Apparent Declination
Unknown
Sunlit
N/A
Visualization observer readout
Local Sidereal Time
16:13:04
Azimuth
Unknown
Elevation
Unknown
Doppler factor
Unknown
Orbital elements
Apogee altitude
862.964 km
Perigee altitude
809.814 km
Semi-major axis
7,214.526 km
Eccentricity
0.00368
Inclination
98.6769°
RAAN
356.8581°
Arg. of periapsis
50.464°
True anomaly
309.65359°
Mean anomaly
309.978°
Eccentric anomaly
309.81589°
Mean motion
3.54186 °/min
Orbital period
101.64 mins
BSTAR
0.0012206
Loading maneuver chart data...
Computing Atmospheric mass density...
Loading historical data...
Loading historical data...
Loading historical data...
Loading historical data...
Loading historical data...
Loading historical data...
Loading historical data...

Documentation

Showing up to 5 results
|